Home   Weather   Hamilton   Past weeks
Flag for Canada

Past Weather in Hamilton, Ontario, Canada — Yesterday and Last 2 Weeks

Now
50 °F

Partly sunny.


Feels Like: 45 °F
Forecast: N/A
Wind: 13 mph from Northeast

Location: Hamilton Airport

Current Time: Oct 19, 2019 at 6:20:04 pm

Latest Report: Oct 19, 2019 at 5:00 pm


Visibility: 15 mi

Pressure: 29.98 "Hg

Humidity: 76%

Dew Point: 43 °F

Location of HamiltonLocation

Past Weather in Hamilton — Graph

°F

Hamilton Temperature Yesterday

Maximum temperature yesterday: 52 °F (at 3:00 pm)
Minimum temperature yesterday: 34 °F (at 8:00 am)
Average temperature yesterday: 43 °F

High & Low Weather Summary for the Past Weeks

 TemperatureHumidityPressure
High66 °F (Oct 6, 3:00 pm)100% (Oct 6, 9:00 am)30.44 "Hg (Oct 6, 9:00 am)
Low32 °F (Oct 19, 6:00 am)39% (Oct 13, 5:00 pm)29.49 "Hg (Oct 17, 1:00 am)
Average50 °F79%30.04 "Hg
* Reported Oct 4 5:00 pm — Oct 19 5:00 pm, Hamilton. Weather by CustomWeather, © 2019

Note: Actual official high and low records may vary slightly from our data, if they occured in-between our weather recording intervals... More about our weather records

Advertising

Hamilton Weather History for the Previous 24 Hours

Scroll right to see more
 ConditionsComfort  
Time TempWeatherWind HumidityBarometerVisibility
5:00 pm
Sat, Oct 19
50 °FPartly sunny.13 mph76%29.98 "Hg15 mi
4:00 pm52 °FPartly sunny.13 mph72%29.99 "Hg15 mi
3:00 pm55 °FScattered clouds.10 mph63%30.00 "Hg15 mi
2:00 pm54 °FPassing clouds.5 mph67%30.02 "Hg15 mi
1:00 pm54 °FPassing clouds.7 mph63%30.04 "Hg15 mi
12:00 pm52 °FPassing clouds.2 mph72%30.07 "Hg15 mi
11:00 am50 °FPassing clouds.3 mph76%30.08 "Hg15 mi
10:00 am46 °FPassing clouds.5 mph82%30.09 "Hg15 mi
9:00 am39 °FPassing clouds.5 mph93%30.08 "Hg15 mi
8:00 am34 °FFog.5 mph93%30.09 "Hg15 mi
7:00 am32 °FPassing clouds.No wind100%30.08 "Hg15 mi
6:00 am32 °FPassing clouds.2 mph93%30.08 "Hg15 mi
5:00 am34 °FPassing clouds.2 mph93%30.07 "Hg15 mi
4:00 am36 °FPassing clouds.6 mph93%30.06 "Hg15 mi
3:00 am36 °FPassing clouds.5 mph93%30.06 "Hg15 mi
2:00 am36 °FPassing clouds.6 mph93%30.06 "Hg15 mi
1:00 am34 °FPassing clouds.5 mph100%30.07 "Hg15 mi
12:00 am36 °FPassing clouds.No wind100%30.07 "Hg15 mi
11:00 pm
Fri, Oct 18
37 °FPassing clouds.5 mph93%30.07 "Hg15 mi
10:00 pm39 °FClear.6 mph87%30.07 "Hg15 mi
9:00 pm41 °FPassing clouds.2 mph81%30.06 "Hg15 mi
8:00 pm45 °FPassing clouds.3 mph71%30.05 "Hg15 mi
7:00 pm48 °FPassing clouds.3 mph62%30.03 "Hg15 mi
6:00 pm50 °FScattered clouds.6 mph58%30.03 "Hg15 mi
Weather by CustomWeather, © 2019

See weather overview